Location: Temple Hill
(37.3073°N, 88.6303°W)
Time: 16:11:34
(UTC+00:00)

SL-16 R/B - Pass Details

Date: 23 November 2020
Orbit: 841 x 849 km, 71.0° (Epoch: 19 January)

Event Time Altitude Azimuth Distance (km) Brightness Sun altitude
Rises 23:45:26 0° 187° (S) 3,382 5.7 -13.1°
Reaches altitude 10° 23:47:55 10° 182° (S) 2,450 4.8 -13.6°
Maximum altitude 23:53:21 53° 107° (ESE) 1,029 2.3 -14.6°
Enters shadow 23:58:03 14° 34° (NE) 2,180 3.9 -15.5°
